Weather History for Farmington, MO

Change the Weather History Date:

Sunday, November 25, 2012

  Actual Average Record
Temperature  
Mean Temperature 44 °F -  
Max Temperature 57 °F 50 °F 68 °F (2006)
Min Temperature 32 °F 33 °F 17 °F (2005)
Degree Days  
Heating Degree Days 20    
Moisture  
Dew Point 25 °F    
Average Humidity 52    
Maximum Humidity 81    
Minimum Humidity 31    
Precipitation  
Precipitation 0.00 in - - ()
Sea Level Pressure  
Sea Level Pressure 29.99 in    
Wind  
Wind Speed 8 mph (South)    
Max Wind Speed 13 mph    
Max Gust Speed 16 mph    
Visibility 8 miles    
Events      
Averages and records for this station are not official NWS values.
T = Trace of Precipitation, MM = Missing Value Source: NWS Daily Summary

Daily Weather History Graph

Daily Weather History Graph

Search for Another Location

Airport:

Trip Planner

Search our weather history database for the weather conditions in past years. The results will help you decide how hot, cold, wet, or windy it might be!

Date:

Astronomy

Nov. 25, 2012 Rise Set
Actual Time 6:52 AM CST 4:44 PM CST
Civil Twilight 6:24 AM CST 5:13 PM CST
Nautical Twilight 5:52 AM CST 5:45 PM CST
Astronomical Twilight 5:20 AM CST 6:16 PM CST
Moon 2:59 PM CST 4:09 AM CST
Length of Visible Light 10h 49m
Length of Day
9h 51m
Waxing Gibbous, 93% of the Moon is Illuminated
Nov 25
Waxing Gibbous
Nov 28
Full
Dec 6
Last Quarter
Dec 13
New
Dec 19
First Quarter

Hourly Weather History & Observations

Time (CST) Temp. Windchill Dew Point Humidity Pressure Visibility Wind Dir Wind Speed Gust Speed Precip Events Conditions
12:15 AM 33.8 °F 25.8 °F 19.4 °F 56% 30.05 in 8.0 mi SSW 10.4 mph - N/A   Clear
12:35 AM 33.8 °F 24.8 °F 19.4 °F 56% 30.05 in 5.0 mi SSW 12.7 mph - N/A   Clear
12:55 AM 33.8 °F 28.6 °F 19.4 °F 56% 30.06 in 3.0 mi SSW 5.8 mph - N/A   Clear
1:15 AM 33.8 °F 25.8 °F 19.4 °F 56% 30.05 in 9.0 mi South 10.4 mph 16.1 mph N/A   Clear
1:35 AM 33.8 °F 26.4 °F 21.2 °F 60% 30.03 in 10.0 mi South 9.2 mph - N/A   Clear
1:55 AM 35.6 °F 29.9 °F 21.2 °F 56% 30.04 in 4.0 mi SW 6.9 mph - N/A   Clear
2:35 AM 35.6 °F 28.6 °F 21.2 °F 56% 30.03 in 6.0 mi SSW 9.2 mph - N/A   Clear
2:55 AM 35.6 °F 29.2 °F 19.4 °F 52% 30.03 in 4.0 mi SSW 8.1 mph - N/A   Clear
3:15 AM 33.8 °F 27.7 °F 21.2 °F 60% 30.02 in 8.0 mi South 6.9 mph - N/A   Clear
3:35 AM 33.8 °F 27.7 °F 21.2 °F 60% 30.02 in 7.0 mi South 6.9 mph - N/A   Clear
3:55 AM 33.8 °F 26.4 °F 21.2 °F 60% 30.01 in 10.0 mi South 9.2 mph - N/A   Clear
4:15 AM 33.8 °F 25.8 °F 21.2 °F 60% 30.00 in 10.0 mi South 10.4 mph - N/A   Clear
4:35 AM 33.8 °F 27.7 °F 21.2 °F 60% 30.00 in 9.0 mi South 6.9 mph - N/A   Clear
4:55 AM 33.8 °F 25.8 °F 21.2 °F 60% 30.00 in 10.0 mi South 10.4 mph - N/A   Clear
5:15 AM 33.8 °F 25.3 °F 21.2 °F 60% 29.99 in 7.0 mi South 11.5 mph - N/A   Clear
5:35 AM 33.8 °F 25.8 °F 21.2 °F 60% 29.99 in 10.0 mi South 10.4 mph - N/A   Clear
5:55 AM 33.8 °F 27.0 °F 21.2 °F 60% 29.99 in 10.0 mi South 8.1 mph - N/A   Clear
6:15 AM 33.8 °F 27.7 °F 21.2 °F 60% 29.99 in 10.0 mi South 6.9 mph - N/A   Clear
6:35 AM 32.0 °F 26.4 °F 21.2 °F 64% 29.99 in 10.0 mi South 5.8 mph - N/A   Clear
6:55 AM 32.0 °F 25.6 °F 21.2 °F 64% 29.99 in 10.0 mi South 6.9 mph - N/A   Clear
7:15 AM 32.0 °F 24.2 °F 21.2 °F 64% 29.99 in 10.0 mi South 9.2 mph - N/A   Clear
7:35 AM 33.8 °F 27.0 °F 21.2 °F 60% 29.99 in 10.0 mi South 8.1 mph - N/A   Clear
7:55 AM 33.8 °F 26.4 °F 23.0 °F 65% 29.99 in 10.0 mi South 9.2 mph - N/A   Clear
8:15 AM 35.6 °F 29.9 °F 23.0 °F 60% 30.01 in 10.0 mi South 6.9 mph - N/A   Clear
8:35 AM 37.4 °F 30.3 °F 24.8 °F 60% 30.01 in 10.0 mi South 10.4 mph - N/A   Clear
8:55 AM 39.2 °F 33.0 °F 24.8 °F 56% 30.01 in 10.0 mi South 9.2 mph - N/A   Clear
9:15 AM 41.0 °F 35.8 °F 24.8 °F 53% 30.01 in 10.0 mi South 8.1 mph - N/A   Clear
9:35 AM 42.8 °F 38.0 °F 24.8 °F 49% 30.01 in 10.0 mi SSE 8.1 mph - N/A   Clear
9:55 AM 44.6 °F 39.7 °F 26.6 °F 49% 30.01 in 10.0 mi SSE 9.2 mph - N/A   Clear
10:15 AM 46.4 °F 42.4 °F 26.6 °F 46% 30.01 in 10.0 mi SSE 8.1 mph - N/A   Clear
10:35 AM 48.2 °F - 28.4 °F 46% 30.00 in 6.0 mi South 6.9 mph - N/A   Clear
10:55 AM 51.8 °F - 24.8 °F 35% 29.99 in 4.0 mi West 8.1 mph - N/A   Clear
11:15 AM 53.6 °F - 24.8 °F 33% 29.98 in 3.0 mi West 8.1 mph - N/A   Clear
11:35 AM 53.6 °F - 26.6 °F 35% 29.97 in 2.0 mi WSW 9.2 mph - N/A   Clear
11:55 AM 53.6 °F - 24.8 °F 33% 29.96 in 2.0 mi WSW 8.1 mph - N/A   Clear
12:15 PM 55.4 °F - 24.8 °F 31% 29.95 in 1.5 mi WSW 8.1 mph - N/A   Clear
12:35 PM 55.4 °F - 26.6 °F 33% 29.94 in 2.5 mi West 8.1 mph - N/A   Clear
12:55 PM 57.2 °F - 26.6 °F 31% 29.93 in 4.0 mi West 6.9 mph - N/A   Clear
1:15 PM 57.2 °F - 28.4 °F 33% 29.93 in 3.0 mi SW 5.8 mph - N/A   Clear
1:35 PM 57.2 °F - 26.6 °F 31% 29.93 in 1.8 mi SSW 5.8 mph - N/A   Clear
1:55 PM 57.2 °F - 28.4 °F 33% 29.93 in 3.0 mi SW 4.6 mph - N/A   Clear
2:15 PM 57.2 °F - 28.4 °F 33% 29.92 in 7.0 mi SSE 8.1 mph - N/A   Clear
2:35 PM 57.2 °F - 28.4 °F 33% 29.92 in 10.0 mi South 9.2 mph - N/A   Clear
2:55 PM 57.2 °F - 28.4 °F 33% 29.93 in 10.0 mi South 8.1 mph - N/A   Clear
3:15 PM 57.2 °F - 28.4 °F 33% 29.93 in 10.0 mi South 8.1 mph - N/A   Clear
3:35 PM 55.4 °F - 28.4 °F 36% 29.93 in 10.0 mi South 10.4 mph - N/A   Clear
3:55 PM 55.4 °F - 28.4 °F 36% 29.93 in 10.0 mi South 9.2 mph - N/A   Clear
4:15 PM 53.6 °F - 28.4 °F 38% 29.94 in 10.0 mi South 6.9 mph - N/A   Clear
4:35 PM 51.8 °F - 28.4 °F 41% 29.94 in 10.0 mi South 5.8 mph - N/A   Clear
4:55 PM 51.8 °F - 26.6 °F 38% 29.94 in 10.0 mi SSE 4.6 mph - N/A   Clear
5:15 PM 51.8 °F - 26.6 °F 38% 29.94 in 10.0 mi SSE 4.6 mph - N/A   Clear
5:35 PM 51.8 °F - 26.6 °F 38% 29.95 in 10.0 mi SSE 4.6 mph - N/A   Clear
5:55 PM 51.8 °F - 26.6 °F 38% 29.96 in 10.0 mi SSE 4.6 mph - N/A   Clear
6:15 PM 50.0 °F - 26.6 °F 40% 29.96 in 10.0 mi SSE 4.6 mph - N/A   Clear
6:35 PM 48.2 °F - 26.6 °F 43% 29.97 in 10.0 mi SE 3.5 mph - N/A   Clear
6:55 PM 46.4 °F 44.3 °F 26.6 °F 46% 29.97 in 10.0 mi SSE 4.6 mph - N/A   Clear
7:15 PM 46.4 °F 45.2 °F 26.6 °F 46% 29.98 in 10.0 mi South 3.5 mph - N/A   Clear
7:35 PM 46.4 °F - 28.4 °F 50% 29.99 in 10.0 mi Calm Calm - N/A   Clear
7:55 PM 46.4 °F 45.2 °F 28.4 °F 50% 29.99 in 10.0 mi SE 3.5 mph - N/A   Clear
8:15 PM 42.8 °F - 26.6 °F 53% 30.00 in 10.0 mi Calm Calm - N/A   Clear
8:35 PM 39.2 °F - 28.4 °F 65% 30.00 in 10.0 mi Calm Calm - N/A   Clear
8:55 PM 37.4 °F - 28.4 °F 70% 30.00 in 10.0 mi Calm Calm - N/A   Clear
9:15 PM 37.4 °F - 28.4 °F 70% 30.01 in 10.0 mi Calm Calm - N/A   Clear
9:35 PM 37.4 °F - 28.4 °F 70% 30.01 in 9.0 mi Calm Calm - N/A   Clear
9:55 PM 37.4 °F - 28.4 °F 70% 30.02 in 10.0 mi Calm Calm - N/A   Clear
10:15 PM 35.6 °F - 28.4 °F 75% 30.02 in 10.0 mi Calm Calm - N/A   Clear
10:35 PM 35.6 °F - 28.4 °F 75% 30.03 in 10.0 mi Calm Calm - N/A   Clear
10:55 PM 35.6 °F - 28.4 °F 75% 30.03 in 10.0 mi Calm Calm - N/A   Clear
11:15 PM 33.8 °F - 28.4 °F 81% 30.04 in 10.0 mi Calm Calm - N/A   Clear
11:35 PM 33.8 °F - 28.4 °F 81% 30.04 in 10.0 mi Calm Calm - N/A   Clear
11:55 PM 33.8 °F - 26.6 °F 75% 30.04 in 10.0 mi Calm Calm - N/A   Clear